Location: Saluda
(35.2377°N, 82.3468°W)
Time: 15:24:18
(UTC+00:00)

SR - Pass Details

Date: 11 October 2022
Orbit: 577 x 875 km, 66.7° (Epoch: 28 November)

Event Time Altitude Azimuth Distance (km) Brightness Sun altitude
Rises 23:05:35 0° 186° (S) 3,394 ? -2.1°
Reaches altitude 10° 23:08:08 10° 180° (S) 2,486 ? -2.6°
Maximum altitude 23:13:34 43° 110° (ESE) 1,210 ? -3.7°
Drops below altitude 10° 23:19:06 10° 41° (NE) 2,521 ? -4.8°
Sets 23:21:41 0° 35° (NE) 3,447 ? -5.4°
